[[{"header":{"parameterUnit":"m.s-1","parameterCategory":1,"la1":30.2991,"la2":30.254,"lo1":-89.0895,"lo2":-89.0444,"dy":0.0017,"dx":0.0017,"nx":28,"ny":28,"refTime":"2024-06-27T03:00:00:Z","depth":0,"parameterNumber":2,"parameterNumberName":"U-component_of_WINDS"},"data":[0,0,0,0,0,0,0,0,0,0,0,0,0,0,0,0,0,0,0,0,0,0,0,0,0,0,0,0,0,0,0,0,0,0,0,0,0,0,0,0,0,0,0,0,0,0,0,0,0,0,0,0,0,0,0,0,0,0,5.6262,5.6263,0,5.6403,5.6405,5.6406,5.6366,5.6363,5.636,5.6357,5.6505,5.6512,5.6518,0,0,0,0,0,0,0,0,0,0,0,0,0,5.596,5.5965,5.6261,5.6263,5.6265,5.6403,5.6405,5.6407,5.6366,5.6363,5.6359,5.6356,5.6503,5.6511,5.6519,0,0,0,0,0,0,0,0,0,0,0,0,0,5.6095,5.5967,5.6261,5.6261,5.6263,5.6402,5.6405,5.6407,5.6367,5.6363,5.6358,5.6354,5.65,5.651,5.652,5.6669,0,0,5.655,5.6555,0,0,0,0,0,0,0,0,5.6087,5.6106,5.626,5.6262,5.6263,5.6362,5.6352,5.6495,5.6368,5.6328,5.6357,5.6352,5.6461,5.6474,5.651,5.6676,5.6682,5.6551,5.6557,5.6562,5.6564,0,0,0,0,0,0,0,5.6078,5.61,5.6317,5.6262,5.6264,5.6255,5.627,5.6379,5.6417,5.6331,5.6328,5.6345,5.6462,5.6501,5.6514,5.6684,5.6551,5.656,5.6566,5.657,5.6978,5.6983,0,0,0,0,0,0,5.6067,5.6092,5.6313,5.6322,5.6163,5.6264,5.6281,5.6335,5.6416,5.6424,5.6349,5.6343,5.6486,5.6502,5.6519,5.6697,5.6561,5.6571,5.6577,5.6973,5.6979,5.6985,0,0,0,0,0,0,5.606,5.6087,5.6307,5.6206,5.6234,5.6274,5.6336,5.634,5.6379,5.643,5.6436,5.6382,5.6483,5.6505,5.6631,5.6702,5.6575,5.6584,5.6968,5.6975,5.6982,5.7056,0,0,0,0,0,0,5.6052,5.6085,5.6141,5.6208,5.6239,5.6417,5.634,5.6346,5.6396,5.639,5.6462,5.647,5.6481,5.6617,5.6641,5.6713,5.6592,5.6961,5.6971,5.698,5.7047,5.7065,5.708,0,0,0,0,0,5.6041,5.6157,5.6144,5.6171,5.631,5.6421,5.6439,5.6448,5.6402,5.6459,5.6492,5.6468,5.6691,5.663,5.6657,5.6733,5.6957,5.6968,5.6979,5.704,5.7061,5.7079,0,0,0,0,0,0,5.6098,5.6166,5.6152,5.6292,5.6351,5.6414,5.6486,5.6471,5.6545,5.6536,5.6546,5.6563,5.6692,5.6726,5.6657,5.6882,5.6817,5.6834,5.6854,5.6875,5.6891,5.6879,5.66,0,0,0,0,0,5.6127,5.621,5.6265,5.6384,5.6414,5.6445,5.6494,5.6496,5.6558,5.6583,5.6624,5.6686,5.6769,5.6824,5.6904,5.7053,5.7068,5.7119,5.7135,5.7148,5.7162,5.7242,5.7265,5.702,5.702,5.702,0,0,5.6187,5.6234,5.6286,5.6396,5.6442,5.6529,5.6466,5.6561,5.6625,5.6597,5.6718,5.6752,5.6821,5.6959,5.7022,5.6991,5.7233,5.7162,5.7172,5.7179,5.7256,5.7279,5.73,5.7028,5.7027,5.7025,0,0,5.6341,5.6385,5.6488,5.6536,5.6605,5.6625,5.665,5.6716,5.6736,5.6858,5.6839,5.6917,5.7061,5.7111,5.7155,5.7329,5.731,5.7355,5.7439,5.7518,5.7537,5.7554,5.7615,5.7637,5.737,5.737,5.737,0,5.6407,5.6536,5.6544,5.664,5.6689,5.6667,5.6772,5.6818,5.6911,5.6945,5.6909,5.709,5.7135,5.7284,5.7326,5.7364,5.7392,5.7346,5.7533,5.7551,5.7567,5.7625,5.7648,5.7375,5.7374,5.7374,5.7373,0,5.6613,5.6703,5.6778,5.6867,5.6925,5.7025,5.7049,5.7107,5.7105,5.713,5.7254,5.7308,5.7398,5.7434,5.7434,5.7584,5.7562,5.753,5.7465,5.7595,5.765,5.7672,5.7382,5.738,5.7378,5.7377,0,0,5.6804,5.6897,5.6924,5.6964,5.704,5.711,5.721,5.7297,5.7346,5.7412,5.7496,5.7619,5.7589,5.764,5.7645,5.7714,5.7847,5.7674,5.7675,5.7703,5.8015,5.8037,5.8062,5.7836,5.784,5.7844,5.8008,0,5.6963,5.7137,5.7148,5.7306,5.7389,5.737,5.7457,5.7514,5.7539,5.7615,5.7644,5.773,5.7685,5.7716,5.7783,5.7816,5.791,5.7805,5.7914,5.7917,5.7894,5.8091,5.8115,5.8268,5.803,5.8033,5.8036,0,5.7171,5.7242,5.7407,5.7471,5.7507,5.7584,5.7665,5.7737,5.7802,5.7816,5.7872,5.7868,5.7971,5.7904,5.8047,5.7975,5.8021,5.8044,5.805,5.8059,5.7983,5.8104,5.8317,5.8339,5.807,5.8068,5.8065,0,5.7292,5.7429,5.7545,5.7581,5.7659,5.7714,5.7749,5.7809,5.7861,5.7932,5.7966,5.8049,5.8094,5.8159,5.8178,5.8127,5.832,5.8254,5.8334,5.8333,5.8373,5.837,5.8595,5.8406,5.8406,5.8405,5.8405,0,5.7467,5.7569,5.7601,5.7672,5.7786,5.7798,5.7911,5.7943,5.7997,5.8075,5.8065,5.8139,5.816,5.8238,5.8253,5.8368,5.839,5.8404,5.8406,5.8404,5.8402,5.8432,5.8421,5.8411,5.841,5.8409,5.8408,0,5.762,5.7646,5.7771,5.7835,5.7854,5.7935,5.799,5.8059,5.8084,5.8183,5.8207,5.8246,5.8337,5.8363,5.8473,5.8483,5.8618,5.8612,5.8596,5.8595,5.8673,5.8664,5.8923,5.8957,5.8748,5.875,5.8751,0,5.7729,5.7807,5.7879,5.793,5.7967,5.805,5.8102,5.8119,5.8174,5.8253,5.8313,5.8403,5.8475,5.8622,5.8661,5.8745,5.874,5.8825,5.8752,5.8747,5.8739,5.8733,5.8741,5.8838,5.884,5.8842,5.8843,0,5.7919,5.7928,5.8003,5.8084,5.8147,5.8211,5.8273,5.8316,5.8341,5.8404,5.8497,5.8553,5.8665,5.8754,5.8839,5.8876,5.8864,5.8866,5.8889,5.8885,5.8872,5.8879,5.8631,5.8859,5.8858,5.8857,5.8856,5.8855,5.8052,5.812,5.8181,5.8266,5.8314,5.8373,5.844,5.8474,5.8551,5.8642,5.8648,5.8748,5.8811,5.8924,5.8966,5.9045,5.902,5.9053,5.9062,5.9069,5.9075,5.8861,5.9061,5.9061,5.9061,5.906,5.906,0,5.824,5.8279,5.8357,5.8443,5.851,5.8493,5.8561,5.8618,5.8706,5.8766,5.8837,5.8943,5.903,5.9076,5.9163,5.9217,5.9214,5.9239,5.9235,5.9243,5.9093,5.9064,5.9241,5.9241,5.9241,5.924,5.924,5.924,5.8345,5.8459,5.8476,5.8614,5.8652,5.8749,5.8789,5.8843,5.8891,5.901,5.9081,5.9111,5.9165,5.9256,5.9335,5.9346,5.9378,5.9406,5.9414,5.9272,5.9254,5.9236,5.9209,5.9413,5.9413,5.9558,5.9559,5.956]},{"header":{"parameterUnit":"m.s-1","parameterCategory":1,"la1":30.2991,"la2":30.254,"lo1":-89.0895,"lo2":-89.0444,"dy":0.0017,"dx":0.0017,"nx":28,"ny":28,"refTime":"2024-06-27T03:00:00:Z","depth":0,"parameterNumber":3,"parameterNumberName":"V-component_of_WINDS"},"data":[0,0,0,0,0,0,0,0,0,0,0,0,0,0,0,0,0,0,0,0,0,0,0,0,0,0,0,0,0,0,0,0,0,0,0,0,0,0,0,0,0,0,0,0,0,0,0,0,0,0,0,0,0,0,0,0,0,0,4.6041,4.6044,0,4.6253,4.6255,4.6258,4.6289,4.6287,4.6286,4.6284,4.6494,4.6501,4.6508,0,0,0,0,0,0,0,0,0,0,0,0,0,4.5655,4.5662,4.6041,4.6044,4.6046,4.6253,4.6255,4.6258,4.629,4.6287,4.6285,4.6283,4.6491,4.65,4.6509,0,0,0,0,0,0,0,0,0,0,0,0,0,4.584,4.5665,4.6041,4.6087,4.6093,4.6252,4.6256,4.6259,4.629,4.6287,4.6284,4.6282,4.6489,4.6499,4.651,4.6635,0,0,4.6544,4.6549,0,0,0,0,0,0,0,0,4.583,4.5854,4.6078,4.6084,4.6092,4.6242,4.6196,4.6385,4.6291,4.6215,4.6284,4.628,4.6412,4.6429,4.6475,4.6645,4.6654,4.6545,4.6552,4.6556,4.6559,0,0,0,0,0,0,0,4.5817,4.5845,4.6125,4.6081,4.6089,4.6094,4.6118,4.6232,4.6327,4.6222,4.6224,4.6249,4.6415,4.6464,4.648,4.6657,4.6545,4.6554,4.6561,4.6565,4.6935,4.6938,0,0,0,0,0,0,4.5797,4.5835,4.6118,4.6131,4.5951,4.6104,4.613,4.6196,4.6326,4.6343,4.6252,4.625,4.6447,4.6467,4.6487,4.6639,4.6556,4.6567,4.6573,4.6932,4.6936,4.6939,0,0,0,0,0,0,4.5788,4.5822,4.6109,4.5984,4.6021,4.6113,4.6188,4.6202,4.6251,4.6348,4.6365,4.6285,4.6445,4.6472,4.6598,4.6647,4.6572,4.6582,4.6928,4.6933,4.6938,4.6945,0,0,0,0,0,0,4.5777,4.5819,4.5869,4.5985,4.6027,4.6219,4.6191,4.6208,4.6271,4.6271,4.6384,4.64,4.6445,4.6581,4.6608,4.6661,4.659,4.6924,4.693,4.6936,4.694,4.6949,4.6957,0,0,0,0,0,4.5763,4.5862,4.5872,4.5906,4.6093,4.6222,4.6246,4.6298,4.6275,4.6325,4.6386,4.6396,4.6637,4.6594,4.6625,4.6681,4.6921,4.6929,4.6936,4.6937,4.6947,4.6956,0,0,0,0,0,0,4.5749,4.5879,4.589,4.603,4.6115,4.6227,4.6292,4.6308,4.6399,4.6395,4.6454,4.6479,4.66,4.6654,4.6603,4.6806,4.6777,4.6791,4.6767,4.6778,4.6786,4.6769,4.6599,0,0,0,0,0,4.5762,4.5859,4.5966,4.6078,4.6121,4.6199,4.6257,4.6289,4.6378,4.6414,4.6485,4.6568,4.6663,4.6724,4.6816,4.6949,4.6971,4.7002,4.701,4.7016,4.7027,4.7096,4.711,4.6963,4.6963,4.6963,0,0,4.579,4.5873,4.593,4.6078,4.6147,4.6242,4.6229,4.633,4.64,4.6428,4.6551,4.6606,4.6703,4.6831,4.6892,4.6879,4.7073,4.7026,4.703,4.7037,4.7105,4.7119,4.7131,4.6968,4.6967,4.6966,0,0,4.589,4.5964,4.6064,4.6134,4.6239,4.629,4.6314,4.6423,4.6461,4.6586,4.6608,4.669,4.6852,4.6919,4.6975,4.7096,4.7106,4.7124,4.7165,4.7233,4.7244,4.7255,4.7294,4.7308,4.7135,4.7135,4.7135,0,4.591,4.6057,4.6113,4.6214,4.6276,4.6307,4.6407,4.6471,4.66,4.6641,4.6626,4.6828,4.6896,4.7039,4.7068,4.7113,4.7139,4.7111,4.7239,4.725,4.726,4.7298,4.7313,4.7136,4.7136,4.7136,4.7136,0,4.6075,4.6176,4.6244,4.6369,4.644,4.6539,4.6607,4.6671,4.6696,4.6748,4.6871,4.6954,4.7061,4.7098,4.7124,4.7243,4.7232,4.7227,4.7198,4.7274,4.7311,4.7327,4.7138,4.7137,4.7137,4.7137,0,0,4.6172,4.6326,4.6349,4.6405,4.6522,4.66,4.6699,4.6806,4.6857,4.6945,4.7026,4.7162,4.7157,4.722,4.7253,4.7313,4.7398,4.73,4.7303,4.7313,4.753,4.753,4.7547,4.7407,4.741,4.7412,4.752,0,4.6282,4.6463,4.6514,4.6665,4.6756,4.6786,4.6871,4.695,4.7,4.7082,4.7137,4.723,4.7219,4.7257,4.7317,4.7375,4.7442,4.7369,4.748,4.7483,4.7452,4.7567,4.7569,4.7667,4.7535,4.7538,4.754,0,4.6435,4.6526,4.6686,4.6789,4.6829,4.6906,4.7006,4.7086,4.7174,4.7206,4.7274,4.7302,4.7402,4.7369,4.7506,4.7454,4.7503,4.7538,4.7543,4.7553,4.7514,4.7577,4.77,4.7714,4.7564,4.7562,4.756,0,4.6485,4.6647,4.6763,4.681,4.6934,4.6986,4.7039,4.7126,4.7186,4.7272,4.7311,4.7408,4.746,4.7532,4.7583,4.7555,4.7714,4.7686,4.774,4.7738,4.777,4.7767,4.79,4.7806,4.7806,4.7805,4.7805,0,4.6601,4.6697,4.6787,4.6858,4.6964,4.7021,4.7124,4.7178,4.7254,4.7333,4.7365,4.7438,4.7503,4.7583,4.7624,4.7728,4.7752,4.7778,4.7787,4.7774,4.777,4.7804,4.7798,4.7809,4.7808,4.7808,4.7807,0,4.6674,4.6739,4.6866,4.6973,4.7001,4.7075,4.7164,4.7232,4.7283,4.7382,4.7408,4.7487,4.7583,4.7642,4.7763,4.779,4.7904,4.7912,4.7874,4.7878,4.7927,4.792,4.8084,4.8107,4.8,4.8001,4.8002,0,4.6743,4.6817,4.6931,4.6987,4.7042,4.7132,4.7193,4.7251,4.7313,4.7418,4.7472,4.757,4.7652,4.7803,4.7869,4.7961,4.7969,4.802,4.7983,4.7966,4.7966,4.796,4.7966,4.8025,4.8026,4.8027,4.8028,0,4.6856,4.6884,4.6973,4.7071,4.7144,4.7224,4.7304,4.7347,4.7418,4.7485,4.7584,4.7647,4.7771,4.7867,4.7964,4.8015,4.8032,4.8039,4.8056,4.8042,4.8016,4.8027,4.7888,4.8035,4.8034,4.8033,4.8033,4.8033,4.6927,4.6993,4.7083,4.7179,4.7246,4.7319,4.7387,4.7446,4.7531,4.7637,4.7666,4.7768,4.7851,4.7984,4.8037,4.8116,4.8108,4.8133,4.8139,4.8143,4.8143,4.8005,4.8134,4.8134,4.8134,4.8134,4.8134,0,4.7039,4.7099,4.7187,4.7297,4.7372,4.7384,4.7472,4.7532,4.7623,4.7701,4.778,4.7892,4.7984,4.8057,4.8151,4.8199,4.8209,4.8222,4.8217,4.8228,4.8146,4.8121,4.8212,4.8212,4.8212,4.8212,4.8212,4.8212,4.7107,4.7218,4.7256,4.7399,4.7457,4.7559,4.7608,4.7674,4.7736,4.786,4.7937,4.7985,4.8059,4.8158,4.8241,4.826,4.8291,4.8302,4.8321,4.8243,4.8234,4.8226,4.8202,4.8309,4.831,4.8397,4.8398,4.8398]}]]